Tracking 29528 objects as of 12-Sep-2024
HD Live streaming from Space Station
objects crossing your sky now

COSMOS 1375 DEB

Track COSMOS 1375 DEB now!
10-day predictions


NORAD ID: 16377
Int'l Code: 1982-055R
Perigee: 858.5 km
Apogee: 915.7 km
Inclination: 65.8 °
Period: 102.6 minutes
Semi major axis: 7258 km
RCS: 0.033 m2 (small)
Launch date: June 6, 1982
Source: Commonwealth of Independent States (former USSR) (CIS)
Launch site: PLESETSK MISSILE AND SPACE COMPLEX (PKMTR)

Note: This is SATELLITE DEBRIS
Your satellite tracking list
Your tracking list is empty




NASA's NSSDC Master Catalog

Two Line Element Set (TLE):
1 16377U 82055R   24255.82028038  .00005824  00000-0  37054-2 0  9993
2 16377  65.8230 235.4262 0039389 345.4914  84.8086 14.04006592976610
Source of the keplerian elements: AFSPC